STARLINK-34545, 65105

Orbit data source: Space-Track

STARLINK-34545, 65105 is a payload satellite owned by SpaceX/Seattle (US) in LEO that was launched on Mon, 04 Aug 2025 UTC via an FALCON 9 launch vehicle from the Air Force Eastern Test Range (AFETR). Payload-class satellites include a variety of spacecraft equipped with specific instruments for various scientific and technological missions. These include communications satellites like Starlink; space stations such as the ISS; scientific satellites like the Hubble; Earth observation satellites from companies like Planet Labs, Umbra, and HawkEye 360; GPS; miniature CubeSats for education and research; and military/defense satellites.

Loading next visibility...
Identifier
65105, 2025-167AD
Orbit
LEO
Country
Flag of USUS
Related business
Manufacturer
SpaceX/Seattle
Mission
Operational Commercial Communications
Bus & Motor
STARLINK V2MO, Unknown motor
Mass
575 kg wet, ~530 kg dry
Launch date (UTC)
2025-08-04 (9 months ago)
Launch vehicle
FALCON 9
Launch site
Air Force Eastern Test Range (AFETR)
Object type
Payload
Rocket body
Debris
Shape & HBR
Box + 2 Pan, 17.7 m
Radar Cross Section
36.964 m², Large (>1 m²)

Expand to show TLE details & history
Last TLE update: 11 hours ago

TLE from 11 hours ago
0 STARLINK-34545
1 65105U 25167AD  26127.25000056  .00016587  00000-0  38971-3 0  9992
2 65105  53.1590 113.3727 0001192  96.9124 263.2017 15.42166070 42469
Epoch: 2026-05-07T06:00Z
TLE epoch observation values (Epoch: 2026-05-07T06:00:00.048Z)
Latitude
-0.00006°
Longitude
158.27361°
Altitude
440.718 km
Speed
7.649 km/s
True Right ascension
07h 33m 29s
True Declination
0° 00' 00"
Sunlit
Object was in daylight at epoch
Visualization orbit readout
Latitude
Unknown
Longitude
Unknown
Altitude
Unknown
Speed
Unknown
Apparent Right ascension
Unknown
Apparent Declination
Unknown
Sunlit
N/A
Visualization observer readout
Local Sidereal Time
00:48:30
Azimuth
Unknown
Elevation
Unknown
Doppler factor
Unknown
Orbital elements
Apogee altitude
440.788 km
Perigee altitude
439.163 km
Semi-major axis
6,818.113 km
Eccentricity
0.00012
Inclination
53.159°
RAAN
113.3727°
Arg. of periapsis
96.9124°
True anomaly
263.18814°
Mean anomaly
263.2017°
Eccentric anomaly
263.19492°
Mean motion
3.8552 °/min
Orbital period
93.38 mins
BSTAR
0.00038971
Loading maneuver chart data...
Computing Atmospheric mass density...
Loading historical data...
Loading historical data...
Loading historical data...
Loading historical data...
Loading historical data...
Loading historical data...
Loading historical data...

Documentation

Showing up to 5 results
|